Weather History for Lihue, HI

Change the Weather History Date:

Wednesday, November 21, 2012

  Actual Average Record
Temperature  
Mean Temperature 75 °F 75 °F  
Max Temperature 81 °F 80 °F 84 °F (1980)
Min Temperature 69 °F 70 °F 60 °F (1958)
Degree Days  
Heating Degree Days 0 0  
Month to date heating degree days 0 0  
Since 1 July heating degree days 0 0  
Cooling Degree Days 10 10  
Month to date cooling degree days 266 236  
Year to date cooling degree days 3753 3603  
Growing Degree Days 24 (Base 50)    
Moisture  
Dew Point 64 °F    
Average Humidity 71    
Maximum Humidity 84    
Minimum Humidity 58    
Precipitation  
Precipitation 0.00 in 0.14 in 1.56 in (2008)
Month to date precipitation 0.49 3.15  
Year to date precipitation 36.72 30.54  
Snow  
Snow 0.00 in - - ()
Month to date snowfall 0.0  
Since 1 July snowfall 0.0  
Since 1 September snowfall 0.0  
Snow Depth 0.00 in    
Sea Level Pressure  
Sea Level Pressure 29.97 in    
Wind  
Wind Speed 6 mph (SW)    
Max Wind Speed 14 mph    
Max Gust Speed 16 mph    
Visibility 10 miles    
Events      
T = Trace of Precipitation, MM = Missing Value Source: NWS Daily Summary

Daily Weather History Graph

Daily Weather History Graph

Search for Another Location

Airport:

Trip Planner

Search our weather history database for the weather conditions in past years. The results will help you decide how hot, cold, wet, or windy it might be!

Date:

Astronomy

Nov. 21, 2012 Rise Set
Actual Time 6:53 AM HST 5:53 PM HST
Civil Twilight 6:29 AM HST 6:16 PM HST
Nautical Twilight 6:02 AM HST 6:44 PM HST
Astronomical Twilight 5:35 AM HST 7:11 PM HST
Moon 1:37 PM HST (11/21) 1:06 AM HST (11/21)
Length of Visible Light 11h 47m
Length of Day
10h 59m
Waxing Gibbous, 63% of the Moon is Illuminated
Nov 21
Waxing Gibbous
Nov 28
Full
Dec 6
Last Quarter
Dec 12
New
Dec 19
First Quarter

Hourly Weather History & Observations

Time (HST) Temp. Heat Index Dew Point Humidity Pressure Visibility Wind Dir Wind Speed Gust Speed Precip Events Conditions
12:53 AM 75.0 °F - 64.0 °F 69% 30.01 in 10.0 mi ENE 10.4 mph - N/A   Scattered Clouds
1:53 AM 75.0 °F - 64.9 °F 71% 30.00 in 10.0 mi ENE 12.7 mph - N/A   Mostly Cloudy
2:53 AM 75.0 °F - 64.0 °F 69% 29.98 in 10.0 mi East 8.1 mph - N/A   Partly Cloudy
3:53 AM 70.0 °F - 63.0 °F 78% 29.96 in 10.0 mi WSW 5.8 mph - N/A   Clear
4:53 AM 70.0 °F - 64.0 °F 81% 29.96 in 10.0 mi West 6.9 mph - N/A   Partly Cloudy
5:53 AM 69.1 °F - 64.0 °F 84% 29.97 in 10.0 mi West 8.1 mph - N/A   Clear
6:53 AM 69.1 °F - 63.0 °F 81% 29.99 in 10.0 mi West 8.1 mph - N/A   Clear
7:53 AM 71.1 °F - 64.0 °F 78% 30.01 in 10.0 mi WSW 5.8 mph - N/A   Clear
8:53 AM 75.0 °F - 64.0 °F 69% 30.01 in 10.0 mi West 5.8 mph - N/A   Clear
9:53 AM 79.0 °F - 64.0 °F 60% 30.02 in 10.0 mi East 5.8 mph - N/A   Clear
10:53 AM 80.1 °F 81.9 °F 64.9 °F 60% 30.00 in 10.0 mi East 5.8 mph - N/A   Clear
11:53 AM 80.1 °F 82.1 °F 66.0 °F 62% 29.97 in 10.0 mi ENE 5.8 mph - N/A   Clear
12:53 PM 80.1 °F 82.1 °F 66.0 °F 62% 29.94 in 10.0 mi ESE 5.8 mph - N/A   Clear
1:53 PM 79.0 °F - 64.9 °F 62% 29.91 in 10.0 mi ESE 8.1 mph - N/A   Partly Cloudy
2:53 PM 77.0 °F - 64.9 °F 66% 29.90 in 10.0 mi East 5.8 mph - N/A   Partly Cloudy
3:53 PM 78.1 °F - 64.0 °F 62% 29.91 in 10.0 mi SSE 6.9 mph - N/A   Overcast
4:53 PM 77.0 °F - 64.9 °F 66% 29.91 in 10.0 mi South 5.8 mph - N/A   Overcast
5:53 PM 75.9 °F - 64.9 °F 69% 29.94 in 10.0 mi South 3.5 mph - N/A   Clear
6:53 PM 75.0 °F - 64.9 °F 71% 29.95 in 10.0 mi West 4.6 mph - N/A   Clear
7:53 PM 72.0 °F - 64.9 °F 78% 29.98 in 10.0 mi WSW 4.6 mph - N/A   Clear
8:53 PM 71.1 °F - 64.9 °F 81% 29.98 in 10.0 mi West 5.8 mph - N/A   Clear
9:53 PM 70.0 °F - 64.0 °F 81% 29.99 in 10.0 mi West 5.8 mph - N/A   Clear
10:53 PM 70.0 °F - 64.0 °F 81% 29.98 in 10.0 mi West 4.6 mph - N/A   Clear
11:53 PM 70.0 °F - 64.0 °F 81% 29.97 in 10.0 mi West 4.6 mph - N/A   Clear